Dubuque, IA

2:34 PM CST on December 05, 2019 (GMT -0600)
Dubuque Regional

Weather History for KDBQ - November, 2019

Change the Weather History Date:

Thursday, November 21, 2019

  Actual Average Record
Temperature  
Mean Temperature 40 °F 34 °F  
Max Temperature 52 °F 42 °F 69 °F (1913)
Min Temperature 28 °F 26 °F -5 °F (1880)
Degree Days  
Heating Degree Days 24 31  
Month to date heating degree days 754 543  
Since 1 July heating degree days 1387 1192  
Cooling Degree Days 0 0  
Month to date cooling degree days 0 0  
Year to date cooling degree days 679 643  
Moisture  
Dew Point 38 °F    
Average Humidity 85    
Maximum Humidity 96    
Minimum Humidity 72    
Precipitation  
Precipitation 0.62 in 0.08 in 1.36 in (1934)
Month to date precipitation 1.52 1.66  
Year to date precipitation 52.85 33.76  
Snow  
Snow 0.00 in 0.10 in - ()
Month to date snowfall 5.4 1.2  
Since 1 July snowfall 14.6 1.2  
Since 1 September snowfall 14.6 1.2  
Snow Depth 0.00 in    
Sea Level Pressure  
Sea Level Pressure 29.82 in    
Wind  
Wind Speed 17 mph ()    
Max Wind Speed 33 mph    
Max Gust Speed 42 mph    
Visibility 7.6 miles    
Events Rain    
T = Trace of Precipitation, MM = Missing Value Source: Averaged Metar Reports

Daily Weather History Graph

Daily Weather History Graph

Search for Another Location

Airport or City:

Astronomy

Nov. 21, 2019 Rise Set
Actual Time 7:00 AM CST 4:36 PM CST
Civil Twilight 6:30 AM CST 5:06 PM CST
Nautical Twilight 5:55 AM CST 5:41 PM CST
Astronomical Twilight 5:22 AM CST 6:14 PM CST
Moon 12:47 AM CST (11/21) 2:13 PM CST (11/21)
Length of Visible Light 10h 36m
Length of Day
9h 35m
Waning Crescent, 29% of the Moon is Illuminated
Nov 21
Waning Crescent
Nov 26
New
Dec 4
First Quarter
Dec 11
Full
Dec 18
Last Quarter

Hourly Weather History & Observations

Time (CST) Temp. Windchill Dew Point Humidity Pressure Visibility Wind Dir Wind Speed Gust Speed Precip Events Conditions
12:53 AM 45.0 °F 37.9 °F - N/A% 29.85 in 6.0 mi SSE 16.1 mph - 0.02 in Rain Light Rain
1:01 AM 45.0 °F 37.6 °F - N/A% 29.82 in 7.0 mi SSE 17.3 mph 29.9 mph 0.00 in Rain Light Rain
1:53 AM 45.0 °F 38.5 °F - N/A% 29.78 in 2.5 mi SSE 13.8 mph 27.6 mph 0.05 in Rain Heavy Rain
2:08 AM 45.0 °F 37.6 °F - N/A% 29.74 in 3.0 mi SSE 17.3 mph - 0.09 in Rain Rain
2:34 AM 45.0 °F 38.2 °F - N/A% 29.76 in 1.2 mi South 15.0 mph 25.3 mph 0.26 in Rain Heavy Rain
2:51 AM 46.4 °F 39.2 °F - N/A% 29.74 in 3.0 mi South 18.4 mph 28.8 mph 0.48 in Rain Light Rain
2:53 AM 46.0 °F 38.3 °F - N/A% 29.76 in 3.0 mi South 20.7 mph 31.1 mph 0.48 in Rain Light Rain
4:53 AM 48.0 °F - - N/A% 29.68 in 7.0 mi South 18.4 mph 29.9 mph N/A   Overcast
5:53 AM 50.0 °F - 48.2 °F 94% 29.65 in 9.0 mi South 21.9 mph 33.4 mph N/A   Overcast
6:53 AM 50.0 °F - 48.0 °F 93% 29.62 in 10.0 mi South 19.6 mph 29.9 mph 0.00 in Rain Light Rain
7:53 AM 50.0 °F - 48.0 °F 93% 29.61 in 4.0 mi SSW 21.9 mph - 0.00 in Rain Light Rain
8:11 AM 50.0 °F - 48.0 °F 93% 29.59 in 2.5 mi SSW 23.0 mph 31.1 mph 0.00 in Rain Light Rain
8:43 AM 51.1 °F - 50.0 °F 96% 29.59 in 3.0 mi SSW 21.9 mph 31.1 mph 0.00 in Rain Light Rain
8:53 AM 51.1 °F - 50.0 °F 96% 29.60 in 4.0 mi SSW 21.9 mph - 0.01 in Rain Light Rain
9:53 AM 52.0 °F - 50.0 °F 93% 29.66 in 10.0 mi West 25.3 mph 38.0 mph 0.00 in Rain Light Rain
10:53 AM 48.0 °F - 44.1 °F 86% 29.71 in 10.0 mi West 18.4 mph 26.5 mph 0.00 in Rain Light Rain
11:53 AM 45.0 °F 36.6 °F 41.0 °F 86% 29.74 in 10.0 mi WNW 21.9 mph 35.7 mph 0.00 in Rain Light Rain
11:57 AM 45.0 °F 36.4 °F 41.0 °F 86% 29.73 in 10.0 mi WNW 23.0 mph 35.7 mph 0.00 in Rain Light Rain
12:53 PM 43.0 °F 34.2 °F 37.9 °F 82% 29.78 in 10.0 mi WNW 20.7 mph 32.2 mph 0.00 in   Overcast
1:53 PM 41.0 °F 30.7 °F 36.0 °F 82% 29.83 in 10.0 mi WNW 25.3 mph 35.7 mph N/A   Overcast
2:53 PM 39.0 °F 29.0 °F 35.1 °F 86% 29.87 in 10.0 mi WNW 20.7 mph 27.6 mph N/A   Overcast
3:50 PM 37.4 °F 26.6 °F 33.8 °F 87% 29.89 in 10.0 mi NW 21.9 mph 29.9 mph N/A   Overcast
3:53 PM 37.9 °F 27.9 °F 33.1 °F 83% 29.92 in 10.0 mi NW 19.6 mph 29.9 mph N/A   Overcast
4:53 PM 37.0 °F 26.2 °F 30.9 °F 79% 29.96 in 10.0 mi NW 21.9 mph 32.2 mph N/A   Overcast
5:53 PM 37.0 °F 27.0 °F 30.0 °F 76% 29.99 in 10.0 mi NNW 18.4 mph 27.6 mph N/A   Overcast
6:53 PM 36.0 °F 27.5 °F 28.9 °F 76% 30.02 in 10.0 mi NNW 12.7 mph 25.3 mph N/A   Overcast
7:53 PM 36.0 °F 29.6 °F 28.9 °F 76% 30.06 in 10.0 mi NW 8.1 mph - N/A   Overcast
8:53 PM 35.1 °F 24.8 °F 28.0 °F 76% 30.09 in 10.0 mi WNW 17.3 mph 24.2 mph N/A   Overcast
9:53 PM 32.0 °F 20.8 °F 25.0 °F 75% 30.10 in 10.0 mi NW 17.3 mph - N/A   Mostly Cloudy
10:53 PM 30.0 °F 18.3 °F 24.1 °F 79% 30.11 in 10.0 mi NW 17.3 mph - N/A   Clear
11:53 PM 28.9 °F 18.2 °F 23.0 °F 78% 30.15 in 10.0 mi NNW 13.8 mph - N/A   Partly Cloudy